Tracking 29892 objects as of 21-Nov-2024
HD Live streaming from Space Station
objects crossing your sky now

STARLINK-31746

Track STARLINK-31746 now!
10-day predictions
STARLINK-31746 is classified as:


NORAD ID: 59613
Int'l Code: 2024-080N
Perigee: 450.1 km
Apogee: 452.2 km
Inclination: 43.0 °
Period: 93.5 minutes
Semi major axis: 6822 km
RCS: Unknown
Launch date: April 28, 2024
Source: United States (US)
Launch site: AIR FORCE EASTERN TEST RANGE (AFETR)
Your satellite tracking list
Your tracking list is empty




NASA's NSSDC Master Catalog

Two Line Element Set (TLE):
1 59613U 24080N   24325.92047005  .00000829  00000-0  27097-4 0  9999
2 59613  43.0030 211.8377 0001606 267.7970  92.2702 15.40709478 33087
Source of the keplerian elements: AFSPC